Weather History for Key West, FL

Change the Weather History Date:

Monday, February 24, 2014

  Actual Average Record
Temperature  
Mean Temperature 77 °F 72 °F  
Max Temperature 81 °F 77 °F 84 °F (1994)
Min Temperature 73 °F 67 °F 53 °F (1901)
Degree Days  
Heating Degree Days 0 0  
Month to date heating degree days 0 19  
Since 1 July heating degree days 22 70  
Cooling Degree Days 12 7  
Month to date cooling degree days 234 155  
Year to date cooling degree days 391 320  
Growing Degree Days 27 (Base 50)    
Moisture  
Dew Point 71 °F    
Average Humidity 81    
Maximum Humidity 93    
Minimum Humidity 69    
Precipitation  
Precipitation 0.00 in 0.06 in 1.62 in (1892)
Month to date precipitation 0.75 1.24  
Year to date precipitation 7.43 3.28  
Snow  
Snow 0.00 in - - ()
Month to date snowfall 0.0  
Since 1 July snowfall 0.0  
Snow Depth 0.00 in    
Sea Level Pressure  
Sea Level Pressure 30.04 in    
Wind  
Wind Speed 6 mph (North)    
Max Wind Speed 12 mph    
Max Gust Speed 15 mph    
Visibility 10 miles    
Events      
T = Trace of Precipitation, MM = Missing Value Source: NWS Daily Summary

Daily Weather History Graph

Daily Weather History Graph

Search for Another Location

Airport:

Trip Planner

Search our weather history database for the weather conditions in past years. The results will help you decide how hot, cold, wet, or windy it might be!

Date:

Astronomy

Feb. 24, 2014 Rise Set
Actual Time 6:53 AM EST 6:26 PM EST
Civil Twilight 6:30 AM EST 6:49 PM EST
Nautical Twilight 6:04 AM EST 7:16 PM EST
Astronomical Twilight 5:37 AM EST 7:42 PM EST
Moon 2:32 AM EST (2/24) 1:45 PM EST (2/24)
Length of Visible Light 12h 19m
Length of Day
11h 33m
Waning Crescent, 28% of the Moon is Illuminated
Feb 24
Waning Crescent
Mar 1
New
Mar 8
First Quarter
Mar 16
Full
Mar 23
Last Quarter

Hourly Weather History & Observations

Time (EST) Temp. Heat Index Dew Point Humidity Pressure Visibility Wind Dir Wind Speed Gust Speed Precip Events Conditions
12:14 AM 75.0 °F - 72.0 °F 90% 30.04 in 10.0 mi ESE 3.5 mph - N/A   Mostly Cloudy
12:21 AM 75.0 °F - 72.0 °F 90% 30.04 in 10.0 mi SE 3.5 mph - N/A   Scattered Clouds
12:53 AM 75.0 °F - 72.0 °F 90% 30.04 in 10.0 mi Calm Calm - N/A   Scattered Clouds
1:10 AM 75.0 °F - 72.0 °F 90% 30.03 in 10.0 mi Calm Calm - N/A   Mostly Cloudy
1:32 AM 75.0 °F - 72.0 °F 90% 30.03 in 10.0 mi Calm Calm - N/A   Scattered Clouds
1:53 AM 75.0 °F - 72.0 °F 90% 30.02 in 10.0 mi NNW 3.5 mph - N/A   Partly Cloudy
2:10 AM 73.9 °F - 72.0 °F 93% 30.02 in 10.0 mi Calm Calm - N/A   Mostly Cloudy
2:19 AM 73.9 °F - 72.0 °F 93% 30.02 in 10.0 mi NNW 3.5 mph - N/A   Scattered Clouds
2:53 AM 73.9 °F - 72.0 °F 93% 30.01 in 10.0 mi WNW 3.5 mph - N/A   Clear
3:53 AM 73.0 °F - 71.1 °F 93% 30.01 in 10.0 mi Calm Calm - N/A   Clear
4:30 AM 73.9 °F - 72.0 °F 93% 30.01 in 10.0 mi NNW 3.5 mph - N/A   Scattered Clouds
4:39 AM 73.9 °F - 72.0 °F 93% 30.01 in 10.0 mi North 6.9 mph - N/A   Mostly Cloudy
4:53 AM 73.9 °F - 72.0 °F 93% 30.01 in 10.0 mi North 4.6 mph - N/A   Mostly Cloudy
5:20 AM 73.9 °F - 72.0 °F 93% 30.02 in 10.0 mi North 5.8 mph - N/A   Mostly Cloudy
5:27 AM 73.9 °F - 73.0 °F 97% 30.02 in 10.0 mi North 4.6 mph - N/A   Mostly Cloudy
5:53 AM 73.9 °F - 72.0 °F 93% 30.03 in 10.0 mi NNE 4.6 mph - N/A   Overcast
6:35 AM 73.9 °F - 72.0 °F 93% 30.04 in 10.0 mi NNE 3.5 mph - N/A   Partly Cloudy
6:53 AM 73.0 °F - 72.0 °F 96% 30.04 in 10.0 mi Calm Calm - N/A   Clear
7:53 AM 75.9 °F - 72.0 °F 87% 30.05 in 10.0 mi North 6.9 mph - N/A   Scattered Clouds
8:53 AM 77.0 °F - 72.0 °F 84% 30.06 in 10.0 mi Calm Calm - N/A   Clear
9:36 AM 78.1 °F - 72.0 °F 81% 30.07 in 10.0 mi Calm Calm - N/A   Mostly Cloudy
9:53 AM 80.1 °F 83.8 °F 72.0 °F 76% 30.07 in 10.0 mi NNE 4.6 mph - N/A   Overcast
10:01 AM 80.1 °F 83.8 °F 72.0 °F 76% 30.07 in 10.0 mi Variable 3.5 mph - N/A   Scattered Clouds
10:53 AM 78.1 °F - 71.1 °F 79% 30.07 in 10.0 mi North 3.5 mph - N/A   Scattered Clouds
11:00 AM 77.0 °F - 71.1 °F 82% 30.07 in 10.0 mi Calm Calm - N/A   Mostly Cloudy
11:21 AM 77.0 °F - 71.1 °F 82% 30.06 in 10.0 mi South 5.8 mph - N/A   Partly Cloudy
11:53 AM 78.1 °F - 71.1 °F 79% 30.05 in 10.0 mi SSW 6.9 mph - N/A   Clear
12:53 PM 78.1 °F - 71.1 °F 79% 30.03 in 10.0 mi Variable 5.8 mph - N/A   Clear
1:53 PM 78.1 °F - 70.0 °F 76% 30.01 in 10.0 mi SW 6.9 mph - N/A   Clear
2:53 PM 80.1 °F 83.2 °F 70.0 °F 71% 30.00 in 10.0 mi WNW 6.9 mph - N/A   Clear
3:53 PM 80.1 °F 83.2 °F 70.0 °F 71% 30.01 in 10.0 mi NNW 6.9 mph - N/A   Clear
4:53 PM 80.1 °F 83.6 °F 71.1 °F 74% 30.01 in 10.0 mi North 8.1 mph - N/A   Clear
5:53 PM 77.0 °F - 69.1 °F 76% 30.03 in 10.0 mi NNW 6.9 mph - N/A   Clear
6:53 PM 75.9 °F - 69.1 °F 79% 30.04 in 10.0 mi North 5.8 mph - N/A   Clear
7:53 PM 75.9 °F - 70.0 °F 82% 30.05 in 10.0 mi NNW 5.8 mph - N/A   Clear
8:53 PM 75.0 °F - 70.0 °F 84% 30.06 in 10.0 mi North 8.1 mph - N/A   Clear
9:53 PM 75.0 °F - 70.0 °F 84% 30.07 in 10.0 mi North 8.1 mph - N/A   Clear
10:53 PM 75.0 °F - 70.0 °F 84% 30.07 in 10.0 mi North 10.4 mph - N/A   Clear
11:53 PM 73.9 °F - 70.0 °F 87% 30.06 in 10.0 mi North 10.4 mph - N/A   Partly Cloudy